Lid_Strength_Index
3 4 3 3 3 4 5 6 8 4 6 8 11 11 12 11 10 9 10 10 11 12 12 12 12 12 11 9 9 10 8 10 11 9 8 9 8 8 8 11 12 12 12 11
3 3 3 3 3 4 5 7 8 5 6 10 11 10 10 9 10 10 10 11 10 10 12 13 12 12 10 9 9 9 7 10 11 11 9 9 9 8 8 9 9 11 13 11
3 3 2 2 3 3 5 7 9 7 8 9 10 11 11 10 8 9 10 10 10 11 12 11 12 12 10 9 8 6 7 9 11 12 11 11 11 10 8 9 10 10 11 10
3 3 2 2 2 3 5 8 10 9 11 10 9 9 9 10 10 8 9 11 11 11 13 12 12 11 10 9 8 9 8 11 11 10 9 11 11 10 9 9 8 10 9 10
3 2 2 2 2 4 5 7 8 8 9 10 9 9 10 11 10 10 10 11 10 10 11 11 12 11 10 11 9 10 9 10 10 11 9 9 10 9 9 9 9 8 8 9
3 2 1 2 3 5 5 6 6 7 11 10 9 10 10 10 9 8 8 9 9 10 10 8 8 8 8 9 10 10 11 10 11 12 10 10 12 9 9 10 10 10 10 9
3 2 1 2 3 4 4 5 6 8 11 9 10 10 9 8 7 8 7 6 8 7 5 6 7 8 8 8 8 8 11 11 10 11 10 15 10 7 8 10 9 9 9 9
3 2 1 2 2 4 3 4 5 6 10 9 10 9 8 7 6 7 7 6 5 4 5 9 10 10 10 10 9 9 8 11 12 13 12 11 11 10 10 11 11 8 9 8
3 2 2 2 2 4 3 3 3 5 9 10 8 8 8 8 8 7 6 4 3 4 7 9 14 13 11 12 11 10 9 9 12 12 13 14 11 9 8 8 13 7 8 8
3 2 2 2 2 3 3 3 3 5 8 7 6 7 7 6 7 8 8 7 6 5 10 13 14 13 10 13 12 13 13 12 13 13 13 11 9 8 7 14 12 8 9 8
2 2 1 2 2 3 3 4 3 4 7 6 6 5 6 6 6 8 9 8 7 8 12 12 12 13 11 11 10 11 11 12 13 12 13 14 8 8 11 9 7 7 9 8
2 2 2 2 2 2 3 5 2 2 5 7 4 4 3 4 4 5 7 7 8 8 11 12 10 13 11 11 14 8 12 9 10 10 11 8 7 9 7 7 7 7 7 8
2 2 2 2 1 2 3 4 4 4 7 7 7 5 3 3 3 3 7 6 5 7 7 11 11 12 10 14 13 10 9 7 11 10 9 8 8 7 6 6 6 6 6 7
2 2 2 2 1 2 4 4 3 4 6 9 7 4 4 2 3 3 4 5 5 5 6 11 10 11 8 11 10 10 9 9 10 10 8 7 7 7 6 5 5 6 6 7
2 2 2 2 2 2 3 3 4 4 6 9 8 5 3 2 2 4 4 5 6 7 8 10 10 9 10 8 9 11 8 10 12 12 9 8 7 7 6 6 6 6 6 6
2 2 2 2 2 2 3 6 3 3 3 8 10 5 4 3 2 4 4 6 6 7 7 8 8 7 8 11 12 9 7 6 6 8 7 7 6 6 6 6 5 5 6 6
2 2 2 2 2 2 5 6 4 3 3 8 9 8 4 4 3 3 4 5 4 5 6 8 8 8 8 11 12 9 7 7 6 6 6 6 6 7 6 6 5 5 5 5
2 3 3 3 4 4 5 3 3 4 5 6 10 9 7 4 5 6 4 5 4 6 6 6 8 7 8 12 9 8 7 7 7 6 6 6 6 5 6 5 4 5 7 6
3 3 3 4 5 6 5 3 2 4 6 9 9 10 10 6 5 4 5 4 8 5 8 8 7 10 12 9 8 8 7 8 7 6 7 7 7 7 6 6 6 7 7 7
3 4 6 7 5 2 3 6 7 7 7 8 10 7 9 7 6 6 6 6 8 10 8 7 9 11 8 7 5 6 6 6 7 8 9 8 8 8 6 6 6 6 7 7
5 6 6 5 3 5 7 9 9 8 9 8 7 8 7 6 8 8 7 9 8 12 9 9 10 11 8 6 6 5 5 5 6 6 6 6 7 7 7 7 6 6 6 7
4 4 4 5 7 7 9 10 9 9 10 7 7 7 6 7 6 7 7 10 8 13 7 10 12 8 7 7 7 6 5 5 6 5 7 7 7 7 7 6 6 6 6 6
2 4 6 7 7 11 12 14 12 12 8 7 7 8 6 7 6 7 8 11 12 7 11 12 9 7 7 6 6 7 6 6 6 7 7 8 8 8 8 8 7 6 6 6
5 7 11 10 11 10 9 9 9 6 6 7 6 8 7 6 8 8 11 10 9 12 14 13 8 7 6 6 5 7 7 6 7 7 7 8 8 8 8 8 8 7 7 6
6 7 11 9 7 6 6 5 6 5 5 6 7 8 8 9 10 9 9 11 14 12 13 9 6 5 5 6 5 5 6 7 6 6 7 7 7 8 7 7 7 7 6 7
6 6 8 6 7 7 6 6 6 5 5 5 7 10 10 10 10 11 12 13 14 10 7 6 5 5 5 5 5 5 3 4 5 5 5 5 6 7 7 7 7 7 7 8
7 8 5 6 6 6 5 5 5 3 6 9 8 11 11 9 11 11 8 10 8 6 6 5 5 5 5 5 5 5 3 3 3 3 3 4 4 4 6 7 7 7 7 7